Location: Monrovia
(34.7865°N, 86.7139°W)
Time: 15:17:44
(UTC+00:00)

NOSS 3-2 (C) - Pass Details

Date: 14 July 2020
Orbit: 801 x 1412 km, 63.4° (Epoch: 08 August)

Event Time Altitude Azimuth Distance (km) Brightness Sun altitude
Exits shadow 09:19:06 19° 200° (SSW) 1,873 4.5 -15.4°
Maximum altitude 09:23:08 73° 118° (ESE) 903 3.4 -14.7°
Drops below altitude 10° 09:29:13 10° 35° (NE) 2,673 7.1 -13.8°
Sets 09:31:57 0° 33° (NNE) 3,710 8.1 -13.3°
